Location: Unspecified
(44.4377°N, 88.0525°W)
Time: 04:12:37
(UTC-06:00)

CZ-3 Stage 3 - Pass Details

Date: 02 February 2021
Orbit: 398 x 34787 km, 30.8° (Epoch: 27 February)

Event Time Altitude Azimuth Distance (km) Brightness Sun altitude
Rises 16:41:47 0° 245° (WSW) 5,039 10.3 2.7°
Reaches altitude 10° 16:43:45 10° 241° (WSW) 4,674 9.2 2.4°
Maximum altitude 17:00:02 62° 163° (SSE) 6,514 7.3 -0.3°
Drops below altitude 10° 01:30:10 10° 174° (S) 20,466 9.4 -56.8°
Sets 01:52:10 0° 168° (SSE) 16,854 9.1 -54.2°
